[Iaude] MPEC Y14: 2020 XP6 [a=2.33,e=0.55,i=5.3,H=26.2]

mpec at marsden.cfa.harvard.edu mpec at marsden.cfa.harvard.edu
Wed Dec 16 09:19:37 EST 2020


M.P.E.C. 2020-Y14                             Issued 2020 December 16, 14:18 UT

     The Minor Planet Electronic Circulars contain information on unusual
         minor planets and routine data on comets.  They are published
    on behalf of Division F of the International Astronomical Union by the
          Minor Planet Center, Smithsonian Astrophysical Observatory,
                          Cambridge, MA 02138, U.S.A.

             Prepared using the Tamkin Foundation Computer Network

                              MPC at CFA.HARVARD.EDU
            URL https://www.minorplanetcenter.net/    ISSN 1523-6714

                                    2020 XP6                                    


Observations:
     K20X06P* C2020 12 14.32000305 10 08.71 +10 38 40.8          21.51GVEY014G96
     K20X06P  C2020 12 14.32552505 10 11.92 +10 39 16.9          21.71GVEY014G96
     K20X06P  C2020 12 14.33106005 10 15.10 +10 39 53.2          20.80GVEY014G96
     K20X06P  C2020 12 14.33656605 10 18.33 +10 40 28.9          21.82GVEY014G96
     K20X06P KC2020 12 14.42246105 11 08.70 +10 49 44.9          20.95GVEY014V06
     K20X06P KC2020 12 14.42571205 11 10.63 +10 50 05.4          20.78GVEY014V06
     K20X06P KC2020 12 14.42896205 11 12.58 +10 50 26.4          20.69GVEY014V06
     K20X06P KC2020 12 14.43221005 11 14.52 +10 50 47.6          20.67GVEY014V06
     K20X06P hC2020 12 14.87182005 15 58.43 +11 38 17.4          21.1 GVEY014L01
     K20X06P hC2020 12 14.87704905 16 01.49 +11 38 51.1          21.1 GVEY014L01
     K20X06P hC2020 12 14.88230905 16 04.64 +11 39 26.2          21.3 GVEY014L01
     K20X06P KC2020 12 15.32626505 20 40.65 +12 27 54.4          21.12GVEY014I52
     K20X06P KC2020 12 15.32962805 20 42.62 +12 28 16.2          21.29GVEY014I52
     K20X06P KC2020 12 15.33299205 20 44.61 +12 28 37.3          20.95GVEY014I52
     K20X06P KC2020 12 15.33635605 20 46.58 +12 28 59.6          20.40GVEY014I52
     K20X06P KC2020 12 15.37622305 21 10.09 +12 33 15.6          20.30GVEY014I52
     K20X06P KC2020 12 15.38279805 21 13.97 +12 33 57.5          22.11GVEY014I52
     K20X06P KC2020 12 16.19261105 29 55.32 +14 00 34.2          21.21GVEY014I52
     K20X06P KC2020 12 16.19850005 29 58.83 +14 01 13.4          20.41GVEY014I52
     K20X06P KC2020 12 16.20144405 30 00.70 +14 01 30.6          20.05GVEY014I52
     K20X06P KC2020 12 16.20215505 30 00.45 +14 01 32.4          21.2 GVEY014858
     K20X06P KC2020 12 16.21132105 30 05.92 +14 02 31.2          20.7 GVEY014858
     K20X06P KC2020 12 16.22068605 30 11.49 +14 03 31.7          20.8 GVEY014858

Observer details:
858 Tebbutt Observatory, Edgewood.  Observer F. B. Zoltowski.  0.51-m Schmidt-
    Cassegrain + CCD.
G96 Mt. Lemmon Survey.  Observer G. J. Leonard.  Measurers E. J. Christensen,
    G. A. Farneth, D. C. Fuls, A. R. Gibbs, A. D. Grauer, H. Groeller, R. A.
    Kowalski, S. M. Larson, G. J. Leonard, T. A. Pruyne, D. Rankin, R. L.
    Seaman, F. C. Shelly, K. W. Wierzchos.  1.5-m reflector + 10K CCD.
I52 Steward Observatory, Mt. Lemmon Station.  Observer D. C. Fuls.  Measurers
    E. J. Christensen, G. A. Farneth, D. C. Fuls, A. R. Gibbs, A. D. Grauer,
    H. Groeller, R. A. Kowalski, S. M. Larson, G. J. Leonard, T. A. Pruyne, D.
    Rankin, R. L. Seaman, F. C. Shelly, K. W. Wierzchos.  1.0-m reflector +
    CCD.
L01 Visnjan Observatory, Tican.  Observers K. Korlevic, D. Pujagic.  1.0-m
    f/2.9 reflector + CCD.
V06 Catalina Sky Survey-Kuiper.  Observer D. C. Fuls.  Measurers E. J.
    Christensen, G. A. Farneth, D. C. Fuls, A. R. Gibbs, A. D. Grauer, H.
    Groeller, R. A. Kowalski, S. M. Larson, G. J. Leonard, T. A. Pruyne, D.
    Rankin, R. L. Seaman, F. C. Shelly, K. W. Wierzchos.  1.55-m reflector +
    1K CCD.

Orbital elements:
2020 XP6                                                 Earth MOID = 0.0701 AU
Epoch 2020 Dec. 17.0 TT = JDT 2459200.5                 Veres
M   1.52558              (2000.0)            P               Q
n   0.27694475     Peri.  347.99896     +0.19139608     -0.97708579
a   2.3309912      Node    90.91402     +0.90804789     +0.14025855
e   0.5484928      Incl.    5.34367     +0.37258096     +0.16009650
P   3.56           H   26.2           G   0.15           U   7
Residuals in seconds of arc
201214 G96  0.3+  0.3-    201214 L01  0.2+  0.6+    201215 I52  0.3-  0.2+
201214 G96  0.4+  0.1-    201214 L01  0.6-  0.0     201216 I52  0.1-  0.5-
201214 G96  0.1-  0.1+    201214 L01  0.2-  0.6+    201216 I52  0.4-  0.6+
201214 G96  0.3+  0.0     201215 I52  0.0   0.0     201216 I52  1.2+  1.2-
201214 V06  0.2-  0.0     201215 I52  0.1-  0.1+    201216 858  0.0   0.2+
201214 V06  0.2-  0.4-    201215 I52  0.1+  0.4-    201216 858  0.0   0.0
201214 V06  0.0   0.4-    201215 I52  0.0   0.2+    201216 858  0.2-  0.3+
201214 V06  0.1+  0.1-    201215 I52  0.1-  0.3+

Ephemeris:
2020 XP6                 a,e,i = 2.33, 0.55, 5                   q = 1.0525
Date    TT    R. A. (2000) Decl.     Delta      r    Elong.  Phase     V
2020 11 16    02 19 09.0 -16 47 00   0.1366  1.0984   140.9    34.6    23.5
...
2020 12 01    03 17 59.1 -09 07 33   0.08983 1.0605   144.5    32.7    22.5
...
2020 12 09    04 18 05.0 +01 17 57   0.07407 1.0529   155.8    22.6    21.7
...
2020 12 15    05 17 15.7 +11 53 16   0.07048 1.0534   168.2    11.0    21.2
2020 12 16    05 27 48.0 +13 40 46   0.07073 1.0539   170.2     9.1    21.2
2020 12 17    05 38 23.5 +15 25 56   0.07123 1.0547   172.1     7.4    21.1
...
2020 12 23    06 39 48.1 +24 23 53   0.07916 1.0621   172.2     7.3    21.4
...
2020 12 31    07 44 32.3 +31 16 34   0.1001  1.0798   163.7    14.8    22.2
...
2021 01 15    08 46 37.1 +35 07 49   0.1583  1.1344   160.8    16.5    23.4

M. P. C. Staff               (C) Copyright 2020 MPC           M.P.E.C. 2020-Y14




More information about the Iaude mailing list